Home   Weather   Rastatt   Past weeks

Flag for Germany Past Weather in Rastatt, Baden-Württemberg, Germany — Yesterday and Last 2 Weeks

Now
21 °F

Ice fog.


Feels Like: 15 °F
Forecast: 11 / 28 °F
Wind: 5 mph from Southeast

Location: Karlsruhe - Baden Wurttemberg

Current Time: Jan 22, 2017 at 9:34:55 pm

Latest Report: Jan 22, 2017 at 8:50 pm


Visibility: 0 mi

Pressure: 30.27 "Hg

Humidity: 100%

Dew Point: 21 °F

Location of RastattLocation

Past Weather in Rastatt — Graph

°F

Rastatt Temperature Yesterday

Maximum temperature yesterday: 30 °F (at 2:50 pm)
Minimum temperature yesterday: 10 °F (at 7:20 am)
Average temperature yesterday: 20 °F

High & Low Weather Summary for the Past Weeks

 TemperatureHumidityPressure
High46 °F (Jan 12, 11:20 pm)100% (Jan 7, 10:20 pm)30.54 "Hg (Jan 7, 10:20 pm)
Low10 °F (Jan 21, 7:20 am)55% (Jan 17, 3:50 pm)29.33 "Hg (Jan 12, 11:50 pm)
Average30 °F87%30.22 "Hg
* Reported Jan 7 7:00 pm — Jan 22 7:50 pm, Rastatt, Weather by CustomWeather, © 2017

Note: Actual official high and low records may vary slightly from our data, if they occured in-between our weather recording intervals... More about our weather records

Advertising

Rastatt Weather History for the Previous 24 Hours

Scroll right to see more
 ConditionsComfort  
Time TempWeatherWind HumidityBarometerVisibility
7:50 pm
Sun, Jan 22
21 °FIce fog.5 mph100%30.27 "Hg1 mi
7:20 pm21 °FIce fog.6 mph93%30.27 "Hg1 mi
6:50 pm19 °FIce fog.5 mph100%30.27 "Hg1 mi
6:20 pm19 °FIce fog.6 mph100%30.27 "Hg1 mi
5:50 pm19 °FIce fog.6 mph100%30.27 "Hg2 mi
5:34 pm19 °FIce fog.5 mph100%30.27 "Hg2 mi
5:20 pm19 °FIce fog.5 mph100%30.27 "Hg2 mi
4:50 pm21 °FIce fog.5 mph100%30.24 "Hg2 mi
4:20 pm23 °FIce fog.2 mph100%30.24 "Hg2 mi
3:50 pm23 °FIce fog.No wind100%30.24 "Hg2 mi
3:20 pm23 °FIce fog.1 mph100%30.24 "Hg2 mi
2:50 pm23 °FIce fog.3 mph100%30.27 "Hg2 mi
2:20 pm21 °FIce fog.3 mph100%30.27 "Hg2 mi
1:50 pm21 °FIce fog.2 mph100%30.27 "Hg1 mi
1:20 pm21 °FIce fog.3 mph100%30.27 "Hg1 mi
12:50 pm21 °FIce fog.2 mph100%30.30 "Hg1 mi
12:20 pm21 °FIce fog.2 mph100%30.30 "Hg1 mi
11:50 am19 °FIce fog.2 mph100%30.30 "Hg1 mi
11:20 am19 °FIce fog.2 mph100%30.33 "Hg0 mi
10:50 am19 °FIce fog.2 mph100%30.33 "Hg0 mi
10:20 am19 °FIce fog.2 mph100%30.33 "Hg0 mi
9:50 am19 °FIce fog.1 mph93%30.33 "Hg0 mi
9:20 am18 °FIce fog.3 mph100%30.33 "Hg0 mi
8:50 am16 °FIce fog.1 mph93%30.30 "Hg2 mi
8:20 am14 °FIce fog.2 mph92%30.33 "Hg2 mi
8:03 am14 °FPassing clouds.1 mph92%30.30 "Hg1 mi
7:54 am14 °FLight fog.1 mph100%30.30 "Hg1 mi
7:20 am12 °FIce fog.No wind100%30.33 "Hg0 mi
6:50 am12 °FIce fog.No wind100%30.30 "Hg0 mi
6:20 am12 °FIce fog.No wind100%30.30 "Hg0 mi
5:50 am12 °FIce fog.No wind100%30.30 "Hg0 mi
5:20 am12 °FIce fog.3 mph100%30.33 "Hg0 mi
4:50 am10 °FIce fog.2 mph100%30.33 "Hg0 mi
4:20 am12 °FIce fog.No wind92%30.33 "Hg0 mi
12:50 am14 °FIce fog.No wind100%30.36 "Hg3 mi
12:20 am16 °FIce fog.1 mph93%30.36 "Hg3 mi
11:50 pm
Sat, Jan 21
16 °FIce fog.1 mph93%30.36 "Hg3 mi
11:20 pm16 °FIce fog.No wind100%30.36 "Hg2 mi
10:50 pm16 °FIce fog.2 mph93%30.36 "Hg2 mi
10:20 pm18 °FIce fog.2 mph100%30.36 "Hg2 mi
9:50 pm16 °FClear.2 mph100%30.36 "Hg4 mi
9:20 pm18 °FClear.2 mph100%30.36 "Hg4 mi
Weather by CustomWeather, © 2017

See weather overviewHow to use our weather pages